User: anonymous   Login
Location: Chippewa Lake
(41.0698°N, 81.9010°W)
Time: 18:03:11
(UTC+00:00)
Language:

FALCON 9 DEB - Orbit

View from above orbital plane
View from above orbital plane
View from above satellite
View from above satellite

Ground track
Ground track

The orbit data is extracted from the following two-line orbital elements,

1 46085U 20055BL  21210.99395979  .00019346  00000-0  19039-3 0  9999
2 46085  53.0111 348.9960 0010224  31.7212 328.4416 15.65987285 60325
Epoch (UTC): 29 July 2021 23:51:18
Eccentricity: 0.0010224
inclination: 53.0111°
perigee height: 363 km
apogee height: 377 km
right ascension of ascending node: 348.9960°
argument of perigee: 31.7212°
revolutions per day: 15.65987285
mean anomaly at epoch: 328.4416°
orbit number at epoch: 6032

The dashed part of the orbit path shows where the satellite is in the earth's shadow,  

DLR